When you browse on this site, cookies collect data to enhance your experience and personalize the content and advertising you see.
Visit our Privacy Policy to learn more. By continuing to use the site, you agree to this use of cookies and data.
  • Em Portugal
  • Lista de países
  • Para 7 dias
  • Temperatura da água
  • Mapas de satélite
  • Mapa do tempo
  • Widgets de tempo
  • user-avatar
    Iniciar Sessão

    Previsão horária em Mierkinie

    Hoje, 27 Março, Quarta-feira

    Tempo Temperatura Precipitação Vento Pressão Humidade
    00:00 -5°C° 0 mm 6 m/s 738 mmHg 83%
    01:00 -6°C° 0 mm 5 m/s 739 mmHg 84%
    02:00 -6°C° 0 mm 5 m/s 740 mmHg 85%
    03:00 -7°C° 0 mm 4 m/s 740 mmHg 86%
    04:00 -6°C° 0 mm 3 m/s 741 mmHg 87%
    05:00 -6°C° 0 mm 3 m/s 742 mmHg 88%
    06:00 -6°C° 0 mm 3 m/s 742 mmHg 84%
    07:00 -5°C° 0 mm 3 m/s 743 mmHg 80%
    08:00 -4°C° 0 mm 3 m/s 743 mmHg 77%
    09:00 -2°C° 0 mm 3 m/s 743 mmHg 74%
    10:00 0°C° 0 mm 3 m/s 744 mmHg 71%
    11:00 0°C° 0 mm 4 m/s 744 mmHg 69%
    12:00 +2°C° 0.1 mm 3 m/s 744 mmHg 67%
    13:00 +2°C° 0.1 mm 3 m/s 744 mmHg 66%
    14:00 +3°C° 0.1 mm 3 m/s 744 mmHg 64%
    15:00 +3°C° 0.1 mm 3 m/s 744 mmHg 64%
    16:00 +3°C° 0.1 mm 3 m/s 744 mmHg 64%
    17:00 +4°C° 0.1 mm 2 m/s 744 mmHg 65%
    18:00 +3°C° 0 mm 2 m/s 744 mmHg 68%
    19:00 +3°C° 0 mm 1 m/s 744 mmHg 72%
    20:00 +3°C° 0 mm 1 m/s 744 mmHg 76%
    21:00 +2°C° 0.1 mm 1 m/s 745 mmHg 78%
    22:00 +2°C° 0.1 mm 1 m/s 745 mmHg 80%
    23:00 +1°C° 0.1 mm 2 m/s 745 mmHg 82%

    Amanhã, 28 Março, Quinta-feira

    Tempo Temperatura Precipitação Vento Pressão Humidade
    00:00 +1°C° 0 mm 2 m/s 745 mmHg 83%
    01:00 -1°C° 0 mm 2 m/s 745 mmHg 85%
    02:00 -1°C° 0 mm 2 m/s 745 mmHg 87%
    03:00 -1°C° 0 mm 2 m/s 745 mmHg 87%
    04:00 -1°C° 0 mm 2 m/s 746 mmHg 88%
    05:00 -1°C° 0 mm 2 m/s 746 mmHg 89%
    06:00 -1°C° 0 mm 2 m/s 746 mmHg 87%
    07:00 +1°C° 0 mm 2 m/s 746 mmHg 85%
    08:00 +1°C° 0 mm 2 m/s 747 mmHg 84%
    09:00 +3°C° 0 mm 2 m/s 747 mmHg 80%
    10:00 +4°C° 0 mm 2 m/s 748 mmHg 75%
    11:00 +6°C° 0 mm 2 m/s 748 mmHg 71%
    12:00 +6°C° 0 mm 2 m/s 748 mmHg 71%
    13:00 +7°C° 0 mm 2 m/s 748 mmHg 70%
    14:00 +8°C° 0 mm 1 m/s 748 mmHg 70%
    15:00 +7°C° 0 mm 2 m/s 748 mmHg 71%
    16:00 +7°C° 0 mm 2 m/s 748 mmHg 73%
    17:00 +6°C° 0 mm 2 m/s 748 mmHg 75%
    18:00 +6°C° 0 mm 2 m/s 748 mmHg 78%
    19:00 +5°C° 0 mm 2 m/s 748 mmHg 81%
    20:00 +5°C° 0 mm 2 m/s 749 mmHg 84%
    21:00 +4°C° 0 mm 2 m/s 749 mmHg 86%
    22:00 +3°C° 0 mm 2 m/s 749 mmHg 88%
    23:00 +3°C° 0 mm 2 m/s 749 mmHg 90%

    Depois de amanhã, 29 Março, Sexta-feira

    Tempo Temperatura Precipitação Vento Pressão Humidade
    00:00 +3°C° 0 mm 2 m/s 749 mmHg 91%
    01:00 +1°C° 0 mm 3 m/s 749 mmHg 92%
    02:00 +1°C° 0 mm 3 m/s 748 mmHg 93%
    03:00 +1°C° 0 mm 3 m/s 748 mmHg 93%
    04:00 +1°C° 0 mm 3 m/s 748 mmHg 93%
    05:00 +1°C° 0 mm 3 m/s 748 mmHg 93%
    06:00 +1°C° 0 mm 4 m/s 747 mmHg 92%
    07:00 +1°C° 0 mm 4 m/s 747 mmHg 90%
    08:00 +2°C° 0 mm 5 m/s 747 mmHg 88%
    09:00 +3°C° 0 mm 5 m/s 747 mmHg 89%
    10:00 +3°C° 0 mm 5 m/s 747 mmHg 89%
    11:00 +5°C° 0 mm 5 m/s 747 mmHg 89%
    12:00 +5°C° 0 mm 6 m/s 747 mmHg 85%
    13:00 +8°C° 0 mm 6 m/s 746 mmHg 81%
    14:00 +9°C° 0 mm 6 m/s 746 mmHg 76%
    15:00 +9°C° 0 mm 6 m/s 746 mmHg 74%
    16:00 +10°C° 0 mm 6 m/s 746 mmHg 71%
    17:00 +10°C° 0 mm 6 m/s 746 mmHg 69%
    18:00 +9°C° 0 mm 5 m/s 745 mmHg 74%
    19:00 +7°C° 0 mm 5 m/s 745 mmHg 80%
    20:00 +6°C° 0 mm 4 m/s 745 mmHg 85%
    21:00 +5°C° 0 mm 4 m/s 745 mmHg 85%
    22:00 +5°C° 0 mm 5 m/s 745 mmHg 84%
    23:00 +5°C° 0 mm 5 m/s 745 mmHg 84%

    30 Março, Sábado

    Tempo Temperatura Precipitação Vento Pressão Humidade
    00:00 +3°C° 0 mm 5 m/s 744 mmHg 85%
    01:00 +3°C° 0 mm 5 m/s 744 mmHg 86%
    02:00 +3°C° 0 mm 5 m/s 744 mmHg 87%
    03:00 +2°C° 0 mm 5 m/s 744 mmHg 88%
    04:00 +2°C° 0 mm 5 m/s 744 mmHg 90%
    05:00 +2°C° 0 mm 5 m/s 743 mmHg 91%
    06:00 +3°C° 0 mm 5 m/s 743 mmHg 89%
    07:00 +3°C° 0 mm 6 m/s 743 mmHg 86%
    08:00 +4°C° 0 mm 6 m/s 743 mmHg 84%
    09:00 +5°C° 0 mm 6 m/s 743 mmHg 76%
    10:00 +7°C° 0 mm 6 m/s 743 mmHg 69%
    11:00 +9°C° 0 mm 6 m/s 743 mmHg 62%
    12:00 +10°C° 0 mm 6 m/s 743 mmHg 58%
    13:00 +11°C° 0 mm 6 m/s 743 mmHg 54%
    14:00 +11°C° 0 mm 6 m/s 743 mmHg 50%
    15:00 +11°C° 0 mm 6 m/s 742 mmHg 51%
    16:00 +11°C° 0 mm 6 m/s 742 mmHg 52%
    17:00 +12°C° 0 mm 5 m/s 742 mmHg 53%
    18:00 +10°C° 0 mm 4 m/s 742 mmHg 59%
    19:00 +9°C° 0 mm 3 m/s 741 mmHg 65%
    20:00 +7°C° 0 mm 2 m/s 741 mmHg 71%
    21:00 +7°C° 0 mm 2 m/s 741 mmHg 72%
    22:00 +6°C° 0 mm 2 m/s 741 mmHg 73%
    23:00 +6°C° 0 mm 2 m/s 740 mmHg 73%

    31 Março, Domingo

    Tempo Temperatura Precipitação Vento Pressão Humidade
    00:00 +6°C° 0 mm 2 m/s 740 mmHg 78%
    01:00 +5°C° 0 mm 3 m/s 739 mmHg 82%
    02:00 +5°C° 0 mm 3 m/s 739 mmHg 86%
    03:00 +7°C° 0 mm 3 m/s 738 mmHg 86%
    04:00 +6°C° 0 mm 4 m/s 738 mmHg 86%
    05:00 +7°C° 0 mm 4 m/s 737 mmHg 86%
    06:00 +7°C° 0 mm 4 m/s 737 mmHg 84%
    07:00 +7°C° 0 mm 5 m/s 737 mmHg 81%
    08:00 +7°C° 0 mm 5 m/s 737 mmHg 79%
    09:00 +9°C° 0 mm 6 m/s 736 mmHg 71%
    10:00 +11°C° 0 mm 6 m/s 736 mmHg 64%
    11:00 +13°C° 0 mm 6 m/s 736 mmHg 57%
    12:00 +14°C° 0.1 mm 7 m/s 736 mmHg 55%
    13:00 +14°C° 0.1 mm 7 m/s 735 mmHg 53%
    14:00 +14°C° 0.1 mm 7 m/s 735 mmHg 51%
    15:00 +12°C° 0.4 mm 7 m/s 735 mmHg 59%
    16:00 +10°C° 0.4 mm 7 m/s 735 mmHg 68%
    17:00 +9°C° 0.4 mm 6 m/s 734 mmHg 76%
    18:00 +7°C° 0.1 mm 6 m/s 735 mmHg 75%
    19:00 +6°C° 0.1 mm 5 m/s 735 mmHg 73%
    20:00 +3°C° 0.1 mm 5 m/s 736 mmHg 72%
    21:00 +2°C° 0 mm 5 m/s 736 mmHg 75%
    22:00 +1°C° 0 mm 6 m/s 737 mmHg 77%
    23:00 -1°C° 0 mm 7 m/s 737 mmHg 80%

    1 Abril, Segunda-feira

    Tempo Temperatura Precipitação Vento Pressão Humidade
    00:00 -1°C° 0 mm 7 m/s 738 mmHg 79%
    01:00 -2°C° 0 mm 6 m/s 738 mmHg 78%
    02:00 -3°C° 0 mm 6 m/s 739 mmHg 77%
    03:00 -2°C° 0 mm 5 m/s 739 mmHg 77%
    04:00 -2°C° 0 mm 5 m/s 740 mmHg 78%
    05:00 -2°C° 0 mm 5 m/s 740 mmHg 78%
    06:00 -2°C° 0 mm 5 m/s 741 mmHg 75%
    07:00 -1°C° 0 mm 5 m/s 741 mmHg 71%
    08:00 -2°C° 0 mm 6 m/s 742 mmHg 68%
    09:00 -1°C° 0 mm 6 m/s 742 mmHg 61%
    10:00 +1°C° 0 mm 6 m/s 742 mmHg 54%
    11:00 +2°C° 0 mm 6 m/s 743 mmHg 47%
    12:00 +3°C° 0 mm 6 m/s 743 mmHg 44%
    13:00 +5°C° 0 mm 5 m/s 743 mmHg 42%
    14:00 +5°C° 0 mm 5 m/s 743 mmHg 40%
    15:00 +5°C° 0 mm 5 m/s 743 mmHg 40%
    16:00 +5°C° 0 mm 5 m/s 743 mmHg 40%
    17:00 +5°C° 0 mm 4 m/s 743 mmHg 41%
    18:00 +4°C° 0 mm 3 m/s 743 mmHg 47%
    19:00 +2°C° 0 mm 3 m/s 743 mmHg 52%
    20:00 +2°C° 0 mm 2 m/s 743 mmHg 58%
    21:00 +1°C° 0 mm 2 m/s 743 mmHg 61%
    22:00 +2°C° 0 mm 1 m/s 743 mmHg 64%
    23:00 +1°C° 0 mm 1 m/s 743 mmHg 67%
    Mostrar mais